JST223 YMML-YSSY

Flight info

Callsign JST223
Flight time 1h 3m
Altitude 35000
Route DOSEL2/34 DOSEL Y59 RIVET
Aircraft A320/M-SDE3FGHIRWY/LB1

Departure

Time 2026-04-20 00:36
Airport Melbourne Airport (YMML)

Arrival

Time 2026-04-20 01:40
Airport Sydney Kingsford Smith International Airport (YSSY)
Time Latitude Longitude Altitude Speed Heading
2026-04-20 00:17 -37.66752 144.84645 350 ft 0 kts 172°
2026-04-20 00:22 -37.66751 144.84645 350 ft 0 kts 172°
2026-04-20 00:29 -37.66747 144.84644 357 ft 2 kts 171°
2026-04-20 00:29 -37.66731 144.84641 354 ft 2 kts 174°
2026-04-20 00:29 -37.66715 144.84638 354 ft 2 kts 172°
2026-04-20 00:30 -37.66699 144.84634 354 ft 2 kts 163°
2026-04-20 00:30 -37.66683 144.84628 353 ft 2 kts 156°
2026-04-20 00:30 -37.66668 144.84621 352 ft 2 kts 146°
2026-04-20 00:30 -37.66656 144.84608 357 ft 2 kts 105°
2026-04-20 00:31 -37.66654 144.84594 356 ft 0 kts 76°
2026-04-20 00:31 -37.66654 144.84593 356 ft 0 kts 77°
2026-04-20 00:33 -37.66654 144.84596 357 ft 3 kts 77°
2026-04-20 00:34 -37.66647 144.84644 354 ft 13 kts 81°
2026-04-20 00:34 -37.66620 144.84770 338 ft 17 kts 51°
2026-04-20 00:34 -37.66505 144.84782 332 ft 16 kts 343°
2026-04-20 00:34 -37.66416 144.84782 331 ft 0 kts
2026-04-20 00:35 -37.66413 144.84782 331 ft 3 kts
2026-04-20 00:35 -37.66356 144.84786 329 ft 11 kts
2026-04-20 00:35 -37.66271 144.84784 329 ft 13 kts 343°
2026-04-20 00:35 -37.66224 144.84690 336 ft 14 kts 279°
2026-04-20 00:36 -37.66200 144.84350 362 ft 71 kts 274°
2026-04-20 00:36 -37.66151 144.83484 403 ft 126 kts 274°
2026-04-20 00:36 -37.66071 144.82137 659 ft 166 kts 274°
2026-04-20 00:36 -37.65986 144.80656 1539 ft 172 kts 273°
2026-04-20 00:37 -37.65896 144.79133 2466 ft 180 kts 272°
2026-04-20 00:37 -37.65801 144.77489 2888 ft 199 kts 272°
2026-04-20 00:37 -37.65696 144.75671 3238 ft 222 kts 273°
2026-04-20 00:37 -37.65576 144.73625 3665 ft 246 kts 274°
2026-04-20 00:38 -37.65444 144.71392 4329 ft 260 kts 274°
2026-04-20 00:38 -37.65237 144.69119 5275 ft 262 kts 284°
2026-04-20 00:38 -37.64511 144.66995 6193 ft 267 kts 303°
2026-04-20 00:38 -37.63232 144.65280 7111 ft 272 kts 321°
2026-04-20 00:39 -37.61526 144.64191 7957 ft 280 kts 340°
2026-04-20 00:39 -37.59641 144.63487 8759 ft 285 kts 341°
2026-04-20 00:39 -37.57711 144.62810 9567 ft 291 kts 347°
2026-04-20 00:39 -37.55663 144.62726 10336 ft 300 kts
2026-04-20 00:40 -37.53606 144.63511 10669 ft 323 kts 27°
2026-04-20 00:40 -37.51792 144.65311 10939 ft 343 kts 50°
2026-04-20 00:40 -37.50355 144.67727 11352 ft 345 kts 54°
2026-04-20 00:40 -37.48915 144.70157 11921 ft 352 kts 53°
2026-04-20 00:41 -37.47453 144.72655 12615 ft 356 kts 58°
2026-04-20 00:41 -37.46182 144.75344 13339 ft 359 kts 60°
2026-04-20 00:41 -37.44914 144.78082 14033 ft 363 kts 61°
2026-04-20 00:41 -37.43642 144.80845 14655 ft 367 kts 61°
2026-04-20 00:42 -37.42359 144.83647 15268 ft 371 kts 61°
2026-04-20 00:42 -37.41067 144.86475 15857 ft 375 kts 62°
2026-04-20 00:42 -37.39762 144.89331 16449 ft 379 kts 62°
2026-04-20 00:42 -37.38440 144.92218 17048 ft 382 kts 62°
2026-04-20 00:43 -37.37099 144.95137 17651 ft 386 kts 62°
2026-04-20 00:43 -37.35749 144.98063 18274 ft 389 kts 62°
2026-04-20 00:43 -37.34381 145.01019 18863 ft 393 kts 62°
2026-04-20 00:43 -37.33001 145.04004 19375 ft 397 kts 62°
2026-04-20 00:44 -37.31608 145.07021 19919 ft 401 kts 62°
2026-04-20 00:44 -37.30203 145.10059 20475 ft 405 kts 62°
2026-04-20 00:44 -37.28779 145.13137 21026 ft 408 kts 63°
2026-04-20 00:44 -37.27344 145.16236 21551 ft 412 kts 63°
2026-04-20 00:45 -37.25897 145.19358 22080 ft 416 kts 63°
2026-04-20 00:45 -37.24434 145.22509 22595 ft 420 kts 63°
2026-04-20 00:45 -37.23150 145.25276 23043 ft 423 kts 63°
2026-04-20 00:46 -37.22355 145.26991 23332 ft 425 kts 63°
2026-04-20 00:46 -37.20865 145.30198 23840 ft 428 kts 63°
2026-04-20 00:46 -37.19357 145.33443 24248 ft 431 kts 63°
2026-04-20 00:46 -37.17840 145.36703 24687 ft 434 kts 63°
2026-04-20 00:47 -37.16280 145.39948 25097 ft 438 kts 59°
2026-04-20 00:47 -37.14493 145.43080 25505 ft 442 kts 57°
2026-04-20 00:47 -37.12695 145.46207 25942 ft 444 kts 58°
2026-04-20 00:47 -37.10884 145.49360 26346 ft 446 kts 58°
2026-04-20 00:48 -37.09069 145.52520 26757 ft 449 kts 58°
2026-04-20 00:48 -37.07239 145.55699 27148 ft 451 kts 58°
2026-04-20 00:48 -37.05395 145.58898 27526 ft 454 kts 58°
2026-04-20 00:48 -37.03544 145.62111 27900 ft 456 kts 58°
2026-04-20 00:49 -37.01678 145.65350 28274 ft 459 kts 58°
2026-04-20 00:49 -36.99807 145.68595 28652 ft 461 kts 58°
2026-04-20 00:49 -36.97923 145.71859 29021 ft 464 kts 58°
2026-04-20 00:49 -36.96057 145.75090 29376 ft 466 kts 58°
2026-04-20 00:50 -36.94152 145.78387 29733 ft 469 kts 58°
2026-04-20 00:50 -36.92229 145.81709 30094 ft 472 kts 58°
2026-04-20 00:50 -36.90298 145.85040 30428 ft 475 kts 58°
2026-04-20 00:50 -36.88353 145.88396 30722 ft 477 kts 59°
2026-04-20 00:51 -36.86408 145.91752 31016 ft 479 kts 59°
2026-04-20 00:51 -36.84449 145.95124 31332 ft 480 kts 58°
2026-04-20 00:51 -36.82485 145.98497 31734 ft 479 kts 58°
2026-04-20 00:51 -36.80519 146.01870 32156 ft 478 kts 59°
2026-04-20 00:52 -36.78564 146.05219 32595 ft 478 kts 59°
2026-04-20 00:52 -36.76604 146.08562 33011 ft 477 kts 59°
2026-04-20 00:52 -36.74650 146.11895 33425 ft 476 kts 59°
2026-04-20 00:52 -36.72699 146.15225 33861 ft 475 kts 59°
2026-04-20 00:53 -36.70747 146.18555 34285 ft 474 kts 59°
2026-04-20 00:53 -36.68807 146.21866 34657 ft 473 kts 59°
2026-04-20 00:53 -36.66892 146.25137 34977 ft 473 kts 59°
2026-04-20 00:53 -36.64929 146.28495 35255 ft 474 kts 59°
2026-04-20 00:54 -36.63011 146.31768 35343 ft 474 kts 59°
2026-04-20 00:54 -36.59122 146.38371 35325 ft 473 kts 59°
2026-04-20 00:55 -36.55244 146.44936 35329 ft 473 kts 59°
2026-04-20 00:55 -36.51318 146.51582 35327 ft 473 kts 59°
2026-04-20 00:56 -36.48950 146.55930 35335 ft 471 kts 61°
2026-04-20 00:56 -36.45081 146.62547 35340 ft 474 kts 57°
2026-04-20 00:57 -36.40990 146.69095 35336 ft 488 kts 57°
2026-04-20 00:57 -36.36855 146.75879 35333 ft 495 kts 58°
2026-04-20 00:58 -36.32754 146.82763 35331 ft 496 kts 58°
2026-04-20 00:58 -36.28664 146.89662 35334 ft 496 kts 58°
2026-04-20 00:59 -36.24572 146.96521 35340 ft 496 kts 58°
2026-04-20 00:59 -36.20473 147.03340 35335 ft 497 kts 58°
2026-04-20 01:00 -36.16347 147.10199 35342 ft 497 kts 58°
2026-04-20 01:00 -36.12215 147.17058 35354 ft 497 kts 58°
2026-04-20 01:01 -36.08077 147.23911 35352 ft 497 kts 58°
2026-04-20 01:01 -36.03932 147.30775 35349 ft 497 kts 58°
2026-04-20 01:02 -35.99788 147.37601 35350 ft 497 kts 58°
2026-04-20 01:02 -35.95640 147.44432 35364 ft 497 kts 58°
2026-04-20 01:03 -35.91493 147.51259 35347 ft 497 kts 58°
2026-04-20 01:03 -35.87362 147.58032 35343 ft 497 kts 58°
2026-04-20 01:04 -35.83209 147.64834 35341 ft 497 kts 58°
2026-04-20 01:04 -35.79047 147.71637 35347 ft 497 kts 57°
2026-04-20 01:05 -35.75138 147.78011 35342 ft 496 kts 57°
2026-04-20 01:05 -35.70969 147.84788 35335 ft 496 kts 57°
2026-04-20 01:06 -35.66802 147.91558 35336 ft 496 kts 57°
2026-04-20 01:06 -35.62654 147.98280 35344 ft 496 kts 57°
2026-04-20 01:07 -35.58480 148.05032 35333 ft 496 kts 57°
2026-04-20 01:07 -35.54309 148.11773 35332 ft 496 kts 57°
2026-04-20 01:08 -35.50129 148.18513 35330 ft 496 kts 57°
2026-04-20 01:08 -35.45932 148.25257 35344 ft 496 kts 57°
2026-04-20 01:09 -35.41746 148.31980 35331 ft 496 kts 57°
2026-04-20 01:09 -35.37550 148.38715 35331 ft 497 kts 57°
2026-04-20 01:10 -35.33351 148.45445 35333 ft 497 kts 57°
2026-04-20 01:10 -35.27061 148.55468 35348 ft 497 kts 57°
2026-04-20 01:11 -35.22843 148.62178 35339 ft 497 kts 57°
2026-04-20 01:11 -35.18622 148.68887 35342 ft 498 kts 57°
2026-04-20 01:12 -35.14395 148.75591 35352 ft 498 kts 57°
2026-04-20 01:12 -35.10157 148.82302 35358 ft 498 kts 57°
2026-04-20 01:13 -35.05920 148.88987 35354 ft 498 kts 57°
2026-04-20 01:13 -35.01714 148.95628 35351 ft 498 kts 57°
2026-04-20 01:14 -34.97466 149.02314 35349 ft 498 kts 57°
2026-04-20 01:14 -34.93921 149.07863 35367 ft 499 kts 57°
2026-04-20 01:15 -34.89657 149.14532 35350 ft 499 kts 57°
2026-04-20 01:15 -34.85400 149.21193 34786 ft 494 kts 57°
2026-04-20 01:16 -34.83309 149.24453 34064 ft 481 kts 57°
2026-04-20 01:16 -34.81280 149.27614 33540 ft 468 kts 57°
2026-04-20 01:16 -34.79290 149.30717 32994 ft 463 kts 57°
2026-04-20 01:16 -34.77318 149.33801 32443 ft 461 kts 57°
2026-04-20 01:17 -34.75360 149.36869 31933 ft 458 kts 57°
2026-04-20 01:17 -34.73573 149.40020 31423 ft 449 kts 65°
2026-04-20 01:17 -34.72112 149.43346 30915 ft 444 kts 68°
2026-04-20 01:17 -34.70676 149.46656 30419 ft 442 kts 67°
2026-04-20 01:18 -34.69238 149.49948 29877 ft 438 kts 67°
2026-04-20 01:18 -34.67820 149.53182 29406 ft 430 kts 67°
2026-04-20 01:18 -34.66421 149.56371 28926 ft 426 kts 67°
2026-04-20 01:18 -34.65035 149.59536 28459 ft 423 kts 67°
2026-04-20 01:19 -34.63658 149.62676 28016 ft 420 kts 67°
2026-04-20 01:19 -34.62292 149.65801 27568 ft 418 kts 67°
2026-04-20 01:19 -34.60937 149.68909 27131 ft 415 kts 67°
2026-04-20 01:19 -34.59587 149.71999 26708 ft 413 kts 67°
2026-04-20 01:20 -34.58238 149.75069 26283 ft 412 kts 66°
2026-04-20 01:20 -34.56889 149.78125 25869 ft 410 kts 66°
2026-04-20 01:20 -34.55562 149.81138 25453 ft 409 kts 66°
2026-04-20 01:20 -34.54227 149.84174 25033 ft 408 kts 66°
2026-04-20 01:21 -34.52894 149.87202 24605 ft 407 kts 66°
2026-04-20 01:21 -34.51559 149.90227 24177 ft 406 kts 66°
2026-04-20 01:21 -34.50223 149.93248 23687 ft 406 kts 66°
2026-04-20 01:21 -34.48896 149.96257 23220 ft 404 kts 66°
2026-04-20 01:22 -34.47574 149.99253 22765 ft 401 kts 65°
2026-04-20 01:22 -34.46263 150.02222 22306 ft 399 kts 65°
2026-04-20 01:22 -34.44956 150.05177 21831 ft 396 kts 65°
2026-04-20 01:22 -34.43655 150.08107 21372 ft 394 kts 65°
2026-04-20 01:23 -34.42359 150.11023 20904 ft 392 kts 65°
2026-04-20 01:23 -34.41073 150.13914 20436 ft 389 kts 65°
2026-04-20 01:23 -34.39790 150.16794 19960 ft 387 kts 64°
2026-04-20 01:23 -34.38513 150.19656 19500 ft 385 kts 64°
2026-04-20 01:24 -34.37240 150.22509 19022 ft 383 kts 64°
2026-04-20 01:24 -34.35979 150.25338 18571 ft 381 kts 64°
2026-04-20 01:24 -34.34728 150.28148 18058 ft 378 kts 64°
2026-04-20 01:24 -34.33505 150.30893 17604 ft 373 kts 64°
2026-04-20 01:25 -34.32281 150.33636 17148 ft 368 kts 64°
2026-04-20 01:25 -34.31065 150.36348 16700 ft 365 kts 64°
2026-04-20 01:25 -34.29858 150.39042 16251 ft 362 kts 64°
2026-04-20 01:25 -34.28665 150.41703 15807 ft 359 kts 64°
2026-04-20 01:26 -34.27487 150.44329 15371 ft 347 kts 64°
2026-04-20 01:26 -34.26350 150.46867 14952 ft 342 kts 64°
2026-04-20 01:26 -34.25237 150.49353 14538 ft 341 kts 64°
2026-04-20 01:26 -34.24111 150.51877 14116 ft 340 kts 64°
2026-04-20 01:27 -34.22993 150.54393 13666 ft 339 kts 64°
2026-04-20 01:27 -34.21879 150.56891 13257 ft 337 kts 64°
2026-04-20 01:27 -34.20770 150.59364 12837 ft 334 kts 64°
2026-04-20 01:27 -34.19659 150.61829 12418 ft 332 kts 64°
2026-04-20 01:28 -34.18558 150.64269 12020 ft 331 kts 63°
2026-04-20 01:28 -34.17193 150.66502 11618 ft 332 kts 43°
2026-04-20 01:28 -34.15316 150.68127 11228 ft 332 kts 33°
2026-04-20 01:28 -34.13366 150.69600 10845 ft 330 kts 33°
2026-04-20 01:29 -34.11416 150.71057 10458 ft 329 kts 33°
2026-04-20 01:29 -34.09472 150.72503 10070 ft 327 kts 33°
2026-04-20 01:29 -34.07538 150.73942 9636 ft 326 kts 33°
2026-04-20 01:29 -34.05612 150.75374 9233 ft 322 kts 33°
2026-04-20 01:30 -34.03774 150.76736 8866 ft 308 kts 33°
2026-04-20 01:30 -34.01961 150.78075 8453 ft 304 kts 33°
2026-04-20 01:30 -34.00142 150.79420 8147 ft 302 kts 33°
2026-04-20 01:30 -33.98376 150.80724 7780 ft 302 kts 33°
2026-04-20 01:31 -33.96567 150.82059 7413 ft 302 kts 33°
2026-04-20 01:31 -33.94790 150.83370 7051 ft 302 kts 33°
2026-04-20 01:31 -33.93007 150.84688 6692 ft 302 kts 33°
2026-04-20 01:31 -33.91211 150.86011 6312 ft 302 kts 33°
2026-04-20 01:32 -33.89422 150.87327 5927 ft 301 kts 33°
2026-04-20 01:32 -33.87637 150.88634 5544 ft 300 kts 33°
2026-04-20 01:32 -33.85869 150.89917 5174 ft 299 kts 33°
2026-04-20 01:32 -33.84067 150.91217 4772 ft 293 kts 33°
2026-04-20 01:33 -33.82363 150.92443 4432 ft 282 kts 32°
2026-04-20 01:33 -33.80730 150.93620 4129 ft 273 kts 33°
2026-04-20 01:33 -33.79101 150.94787 3570 ft 272 kts 33°
2026-04-20 01:33 -33.77472 150.95950 3271 ft 271 kts 32°
2026-04-20 01:34 -33.75858 150.97109 3032 ft 268 kts 34°
2026-04-20 01:34 -33.74507 150.98572 2978 ft 264 kts 59°
2026-04-20 01:34 -33.73846 151.00600 2997 ft 260 kts 80°
2026-04-20 01:34 -33.73487 151.02727 2993 ft 260 kts 82°
2026-04-20 01:35 -33.73164 151.04866 2981 ft 260 kts 83°
2026-04-20 01:35 -33.72851 151.07012 2985 ft 260 kts 90°
2026-04-20 01:35 -33.73158 151.09090 2987 ft 251 kts 118°
2026-04-20 01:35 -33.74078 151.10848 2997 ft 248 kts 134°
2026-04-20 01:36 -33.75369 151.12180 3000 ft 242 kts 150°
2026-04-20 01:36 -33.76888 151.12993 2997 ft 241 kts 166°
2026-04-20 01:36 -33.78543 151.13434 2885 ft 241 kts 168°
2026-04-20 01:36 -33.80160 151.13851 2609 ft 239 kts 169°
2026-04-20 01:37 -33.81787 151.14272 2300 ft 238 kts 169°
2026-04-20 01:37 -33.83373 151.14683 1984 ft 227 kts 168°
2026-04-20 01:37 -33.84828 151.15060 1708 ft 201 kts 170°
2026-04-20 01:37 -33.86130 151.15398 1451 ft 180 kts 169°
2026-04-20 01:38 -33.87275 151.15695 1220 ft 157 kts 169°
2026-04-20 01:38 -33.88283 151.15956 1033 ft 140 kts 170°
2026-04-20 01:38 -33.89229 151.16202 838 ft 138 kts 170°
2026-04-20 01:38 -33.90177 151.16441 686 ft 134 kts 169°
2026-04-20 01:39 -33.91064 151.16671 440 ft 126 kts 172°
2026-04-20 01:39 -33.91908 151.16897 313 ft 124 kts 173°
2026-04-20 01:39 -33.92751 151.17114 104 ft 117 kts 171°
2026-04-20 01:39 -33.93453 151.17285 30 ft 87 kts 167°
2026-04-20 01:40 -33.93842 151.17396 29 ft 18 kts 167°
2026-04-20 01:40 -33.93903 151.17513 30 ft 21 kts 84°
2026-04-20 01:40 -33.93896 151.17552 30 ft 0 kts 75°
2026-04-20 01:41 -33.93878 151.17582 30 ft 11 kts 39°
2026-04-20 01:41 -33.93772 151.17580 30 ft 20 kts 349°
2026-04-20 01:41 -33.93628 151.17539 30 ft 22 kts 346°
2026-04-20 01:41 -33.93485 151.17506 31 ft 14 kts